Location: Unspecified
(0.0000°N, 0.0000°E)
Time: 06:59:57
(UTC+00:00)

Transit 2A - Pass Details

Date: 08 October 2022
Orbit: 598 x 959 km, 66.7° (Epoch: 06 December)

Event Time Altitude Azimuth Distance (km) Brightness Sun altitude
Rises 19:13:23 0° 180° (S) 3,244 9.3 -21.4°
Reaches altitude 10° 19:16:14 10° 168° (SSE) 2,248 8.4 -22.1°
Enters shadow 19:17:51 17° 155° (SSE) 1,756 7.7 -22.5°
